This demonstration page uses our WeatherBlox Daily Observations layout. Learn more.

Left ArrowRight Arrow

Hourly Observations for June 10, 2022

Temp ( °F °C ) Dew Point ( °F °C ) Humidity (%) Winds ( mph kmh ) Pressure ( in mb ) Visibility ( mi km ) Precip ( " mm )
12:15 am 00:15 Clear 61 16 54 12 77 77 Calm 29.91 1013 10 16 0.00 0.00
12:35 am 00:35 Clear 61 16 54 12 77 77 SW 3 6 29.91 1013 10 16 0.00 0.00
12:55 am 00:55 Clear 59 15 54 12 82 82 WNW 5 7 29.91 1013 10 16 0.00 0.00
1:15 am 01:15 Clear 61 16 54 12 77 77 W 3 6 29.91 1013 10 16 0.00 0.00
1:35 am 01:35 Clear 61 16 54 12 77 77 Calm 29.92 1013 10 16 0.00 0.00
1:55 am 01:55 Clear 57 14 54 12 88 88 W 3 6 29.92 1013 10 16 0.00 0.00
2:15 am 02:15 Clear 59 15 54 12 82 82 WNW 3 6 29.92 1013 10 16 0.00 0.00
2:35 am 02:35 Clear 59 15 54 12 82 82 Calm 29.91 1013 10 16 0.00 0.00
2:55 am 02:55 Clear 55 13 54 12 94 94 Calm 29.91 1013 10 16 0.00 0.00
3:15 am 03:15 undefined 57 14 54 12 88 88 WSW 3 6 29.91 1013 N/A 0.00 0.00
3:35 am 03:35 undefined 55 13 54 12 94 94 WSW 5 7 29.91 1013 N/A 0.00 0.00
3:55 am 03:55 Clear 55 13 54 12 94 94 W 6 9 29.91 1013 10 16 0.00 0.00
4:15 am 04:15 Clear 55 13 54 12 94 94 W 5 7 29.91 1013 10 16 0.00 0.00
4:35 am 04:35 undefined 57 14 54 12 88 88 Calm 29.91 1013 N/A 0.00 0.00
4:55 am 04:55 undefined 59 15 54 12 82 82 Calm 29.91 1013 N/A 0.00 0.00
5:15 am 05:15 undefined 59 15 54 12 82 82 SSW 3 6 29.92 1013 N/A 0.00 0.00
5:35 am 05:35 undefined 57 14 54 12 88 88 Calm 29.92 1013 N/A 0.00 0.00
5:55 am 05:55 undefined 55 13 54 12 94 94 WSW 3 6 29.92 1013 N/A 0.00 0.00
6:15 am 06:15 undefined 57 14 54 12 88 88 Calm 29.93 1014 N/A 0.00 0.00
6:35 am 06:35 Sunny 57 14 54 12 88 88 WNW 5 7 29.93 1014 10 16 0.00 0.00
6:55 am 06:55 Sunny 59 15 55 13 88 88 WNW 5 7 29.93 1013 10 16 0.00 0.00
7:15 am 07:15 Sunny 63 17 55 13 77 77 WNW 6 9 29.93 1013 10 16 0.00 0.00
7:35 am 07:35 Sunny 64 18 57 14 78 78 NW 6 9 29.92 1013 10 16 0.00 0.00
7:55 am 07:55 Sunny 66 19 55 13 68 68 NW 6 9 29.93 1014 10 16 0.00 0.00
8:15 am 08:15 Sunny 68 20 57 14 69 69 NW 7 11 29.93 1014 10 16 0.00 0.00
8:35 am 08:35 Sunny 68 20 57 14 69 69 NW 8 13 29.92 1013 10 16 0.00 0.00
8:55 am 08:55 Sunny 70 21 57 14 64 64 NW 12 19 29.93 1014 10 16 0.00 0.00
9:15 am 09:15 Sunny 70 21 59 15 69 69 NW 8 13 29.94 1014 10 16 0.00 0.00
9:35 am 09:35 Sunny 72 22 59 15 65 65 WNW 7 11 29.95 1014 10 16 0.00 0.00
9:55 am 09:55 Sunny 72 22 59 15 65 65 NW 10 17 29.95 1014 10 16 0.00 0.00
10:15 am 10:15 Sunny 72 22 59 15 65 65 NW 9 15 29.95 1014 10 16 0.00 0.00
10:35 am 10:35 Sunny 72 22 57 14 61 61 N 9 15 29.96 1015 10 16 0.00 0.00
10:55 am 10:55 Sunny 73 23 59 15 61 61 NNW 7 11 29.96 1014 10 16 0.00 0.00
11:15 am 11:15 Sunny 73 23 59 15 61 61 N 9 15 29.94 1014 10 16 0.00 0.00
11:35 am 11:35 Sunny 73 23 59 15 61 61 NNW 7 11 29.94 1014 10 16 0.00 0.00
11:55 am 11:55 Partly Cloudy 75 24 59 15 57 57 NW 6 9 29.94 1014 10 16 0.00 0.00
12:15 pm 12:15 Partly Cloudy 77 25 59 15 54 54 WNW 7 11 29.93 1014 10 16 0.00 0.00
12:35 pm 12:35 Mostly Cloudy 75 24 57 14 54 54 N 6 9 29.93 1013 10 16 0.00 0.00
12:55 pm 12:55 Mostly Cloudy 79 26 59 15 51 51 Calm 29.92 1013 10 16 0.00 0.00
1:15 pm 13:15 Partly Cloudy 79 26 59 15 51 51 W 8 13 29.91 1013 10 16 0.00 0.00
1:35 pm 13:35 Mostly Cloudy 77 25 57 14 51 51 NNW 7 11 29.91 1013 10 16 0.00 0.00
1:55 pm 13:55 Partly Cloudy 77 25 55 13 47 47 WNW 5 7 29.90 1013 10 16 0.00 0.00
2:15 pm 14:15 Partly Cloudy 79 26 55 13 45 45 NW 10 17 29.90 1013 10 16 0.00 0.00
2:35 pm 14:35 Partly Cloudy 79 26 55 13 45 45 NW 9 15 29.89 1012 10 16 0.00 0.00
2:55 pm 14:55 Partly Cloudy 79 26 55 13 45 45 N 6 9 29.88 1012 10 16 0.00 0.00
3:15 pm 15:15 Mostly Cloudy 79 26 55 13 45 45 NW 6 9 29.87 1012 10 16 0.00 0.00
3:35 pm 15:35 Partly Cloudy 79 26 55 13 45 45 NW 5 7 29.87 1012 10 16 0.00 0.00
3:55 pm 15:55 Partly Cloudy 79 26 55 13 45 45 W 7 11 29.87 1012 10 16 0.00 0.00
4:15 pm 16:15 Partly Cloudy 79 26 55 13 45 45 NW 6 9 29.88 1012 10 16 0.00 0.00
4:35 pm 16:35 Mostly Cloudy 79 26 55 13 45 45 NW 6 9 29.88 1012 10 16 0.00 0.00
4:55 pm 16:55 Partly Cloudy 79 26 55 13 45 45 W 6 9 29.88 1012 10 16 0.00 0.00
5:15 pm 17:15 Mostly Cloudy 77 25 54 12 44 44 N 8 13 29.87 1012 10 16 0.00 0.00
5:35 pm 17:35 Mostly Cloudy 79 26 55 13 45 45 NNW 6 9 29.88 1012 10 16 0.00 0.00
5:55 pm 17:55 Partly Cloudy 79 26 55 13 45 45 NW 3 6 29.88 1012 10 16 0.00 0.00
6:15 pm 18:15 Mostly Cloudy 77 25 54 12 44 44 Calm 29.88 1012 10 16 0.00 0.00
6:35 pm 18:35 Mostly Cloudy 77 25 54 12 44 44 N 5 7 29.88 1012 10 16 0.00 0.00
6:55 pm 18:55 Partly Cloudy 77 25 54 12 44 44 NNW 5 7 29.88 1012 10 16 0.00 0.00
7:15 pm 19:15 Partly Cloudy 77 25 54 12 44 44 NNE 6 9 29.88 1012 10 16 0.00 0.00
7:35 pm 19:35 Mostly Cloudy 75 24 54 12 47 47 NNW 3 6 29.90 1012 10 16 0.00 0.00
7:55 pm 19:55 Cloudy 75 24 54 12 47 47 Calm 29.90 1012 10 16 0.00 0.00
8:15 pm 20:15 Cloudy 75 24 54 12 47 47 Calm 29.90 1012 10 16 0.00 0.00
8:35 pm 20:35 Mostly Cloudy 73 23 57 14 57 57 Calm 29.90 1012 10 16 0.00 0.00
8:55 pm 20:55 Mostly Cloudy 72 22 59 15 65 65 Calm 29.90 1012 10 16 0.00 0.00
9:15 pm 21:15 Cloudy 72 22 61 16 69 69 Calm 29.91 1013 10 16 0.00 0.00
9:35 pm 21:35 Mostly Cloudy 70 21 61 16 73 73 Calm 29.91 1013 10 16 0.00 0.00
9:55 pm 21:55 Mostly Cloudy 70 21 61 16 73 73 Calm 29.92 1013 10 16 0.00 0.00
10:15 pm 22:15 Partly Cloudy 70 21 59 15 69 69 Calm 29.93 1014 10 16 0.00 0.00
10:35 pm 22:35 Clear 70 21 59 15 69 69 Calm 29.93 1014 10 16 0.00 0.00
10:55 pm 22:55 Mostly Cloudy 70 21 59 15 69 69 Calm 29.94 1014 10 16 0.00 0.00
11:15 pm 23:15 Mostly Cloudy 70 21 61 16 73 73 Calm 29.94 1014 10 16 0.00 0.00
11:35 pm 23:35 Mostly Cloudy 68 20 61 16 78 78 Calm 29.94 1014 10 16 0.00 0.00
11:55 pm 23:55 Mostly Cloudy 68 20 61 16 78 78 Calm 29.94 1014 10 16 0.00 0.00

Powered by AerisWeather